Regional Weather Roundup
Issued by NWS Cleveland, OH

Home | Current Version | Previous Version | Graphics & Text | Print | Product List | Glossary On
Versions: 1 2 3 4 5 6 7 8 9 10 11 12 13 14 15 16 17 18 19 20 21 22 23 24 25 26 27 28 29 30 31 32 33 34 35 36 37 38 39 40 41 42 43 44 45 46 47 48 49 50
000
ASUS41 KCLE 041000
RWRCLE
OHIO REGIONAL WEATHER ROUNDUP
NATIONAL WEATHER SERVICE WILMINGTON, OH
600 AM EDT SAT JUL 04 2015

NOTE: "FAIR" INDICATES FEW OR NO CLOUDS BELOW 12,000 FEET WITH NO
SIGNIFICANT WEATHER AND/OR OBSTRUCTIONS TO VISIBILITY.

OHZ001>008-015>018-024>027-034-035-043-044-041100-
   NORTHWEST OHIO

CITY           SKY/WX    TMP DP  RH WIND       PRES   REMARKS
DEFIANCE       CLEAR     56  53  90 CALM      29.95R
FINDLAY        CLEAR     53  51  93 CALM      29.93R
TOLEDO EXPRESS CLEAR     55  51  86 CALM      29.94R
TOLEDO EXEC    CLEAR     56  52  86 CALM      29.95R
LIMA           CLEAR     52  50  93 CALM      29.95R
$$

OHZ009>014-019>023-028>033-038-089-041100-
   NORTHEAST OHIO

CITY           SKY/WX    TMP DP  RH WIND       PRES   REMARKS
CLE-HOPKINS    CLEAR     58  53  84 CALM      29.93S
CLE-LAKEFRONT  CLEAR     65  58  78 MISG      29.90S
CUY CO. ARPT   NOT AVBL
LORAIN-ELYRIA  CLEAR     56  54  93 CALM      29.93R
ASHTABULA      PTCLDY    54  52  93 CALM      29.91S
AKRON-CANTON   PTCLDY    60  51  72 N8        29.91R
WOOSTER        NOT AVBL
MANSFIELD      FOG       57  57 100 NW6       29.94R VSB 1/4
YOUNGSTOWN     CLOUDY    60  57  89 NW3       29.90R
$$

OHZ042-051>053-060>062-070>072-077>081-041100-
  SOUTHWEST OHIO

CITY           SKY/WX    TMP DP  RH WIND       PRES   REMARKS
CINC-COVINGTON CLOUDY    67  64  90 NW6       29.94R
CINC-LUNKEN    CLOUDY    66  64  93 E5        29.93R
HAMILTON       CLOUDY    64  63  96 CALM      29.95R
DAYTON         NOT AVBL
WRIGHT-PAT AFB CLEAR     61  59  94 CALM      29.94R FOG
DAYTON GENERAL CLEAR     62  60  93 N6        29.94R
WILMINGTON     CLEAR     61  59  93 CALM      29.94R FOG
$$

OHZ036-037-039>041-045>050-054>059-063>069-073>076-082>088-041100-
  CENTRAL AND SOUTHEAST OHIO

CITY           SKY/WX    TMP DP  RH WIND       PRES   REMARKS
COLUMBUS       PTCLDY    59  56  89 N5        29.91S
OSU AIRPORT    CLEAR     57  55  93 W3        29.93R
BOLTON FIELD   NOT AVBL
RICKENBACK AFB NOT AVBL
NEWARK         CLEAR     58  56  93 CALM      29.91S
MARION         CLEAR     56  52  86 CALM      29.95R
LANCASTER      CLEAR     60  58  92 N5        29.92R FOG
ZANESVILLE     PTCLDY    60  57  89 CALM      29.91R FOG
NEW PHILLY     PTCLDY    59  58  96 W3        29.91R
$$



USA.gov is the U.S. government's official web portal to all federal, state and local government web resources and services.